Location: Wingville
(42.9917°N, 90.4915°W)
Time: 03:32:24
(UTC+00:00)

CUBESAT XI-V - Pass Details

Date: 01 July 2022
Orbit: 668 x 690 km, 98.1° (Epoch: 13 August)

Event Time Altitude Azimuth Distance (km) Brightness Sun altitude
Exits shadow 06:14:38 - 100° (E) 2,441 ? -23.9°
Reaches altitude 10° 06:16:10 10° 85° (E) 2,108 ? -23.9°
Maximum altitude 06:18:05 13° 60° (ENE) 1,938 ? -23.8°
Drops below altitude 10° 06:20:01 10° 35° (NE) 2,109 ? -23.8°
Sets 06:23:29 0° 7° (N) 3,025 ? -23.8°
